QPF
0.01 0.01 0.01 0.01 0.02 0.02 0.03 0.04 0.03 0.02 0.02 0.02 0.02 0.03 0.02 0.02 0.02 0.03 0.03 0.04 0.03 0.03 0.04 0.04 0.05 0.07 0.13 0.14 0.16 0.20 0.18 0.16 0.12 0.12 0.14 0.11 0.08 0.07 0.08 0.07 0.07 0.07 0.08
0.01 0.01 0.01 0.01 0.01 0.02 0.03 0.02 0.03 0.03 0.03 0.03 0.03 0.02 0.02 0.02 0.02 0.03 0.04 0.04 0.03 0.04 0.04 0.04 0.06 0.07 0.09 0.09 0.10 0.13 0.12 0.10 0.09 0.10 0.13 0.13 0.11 0.11 0.09 0.08 0.07 0.06 0.06
0.02 0.02 0.01 0.01 0.01 0.02 0.05 0.03 0.02 0.02 0.02 0.03 0.03 0.03 0.03 0.03 0.03 0.04 0.04 0.04 0.05 0.06 0.06 0.06 0.06 0.05 0.04 0.05 0.06 0.07 0.07 0.08 0.06 0.06 0.09 0.09 0.10 0.11 0.12 0.10 0.09 0.08 0.06
0.01 0.02 0.03 0.01 0.01 0.02 0.05 0.04 0.02 0.02 0.03 0.04 0.03 0.03 0.03 0.04 0.04 0.05 0.03 0.05 0.07 0.08 0.06 0.04 0.03 0.02 0.02 0.03 0.05 0.06 0.06 0.08 0.08 0.08 0.06 0.06 0.05 0.07 0.09 0.10 0.09 0.08 0.07
0.01 0.01 0.03 0.03 0.01 0.02 0.05 0.03 0.01 0.01 0.03 0.04 0.02 0.01 0.02 0.02 0.04 0.04 0.03 0.04 0.04 0.04 0.02 0.01 0.02 0.02 0.02 0.03 0.06 0.08 0.06 0.05 0.05 0.04 0.04 0.06 0.06 0.06 0.06 0.07 0.08 0.08 0.07
0.00 0.01 0.02 0.03 0.04 0.04 0.03 0.02 0.01 0.01 0.02 0.02 0.01 0.01 0.02 0.02 0.01 0.02 0.01 0.02 0.02 0.02 0.02 0.01 0.01 0.01 0.01 0.03 0.06 0.07 0.07 0.06 0.04 0.04 0.03 0.04 0.06 0.06 0.05 0.06 0.07 0.08 0.08
0.00 0.00 0.01 0.02 0.02 0.01 0.01 0.01 0.01 0.01 0.01 0.01 0.01 0.02 0.02 0.02 0.01 0.01 0.01 0.01 0.02 0.02 0.01 0.01 0.02 0.02 0.02 0.03 0.05 0.05 0.05 0.06 0.05 0.05 0.04 0.04 0.05 0.06 0.06 0.06 0.05 0.05 0.05
0.01 0.01 0.01 0.01 0.01 0.01 0.01 0.01 0.02 0.01 0.01 0.01 0.01 0.02 0.01 0.01 0.02 0.02 0.01 0.01 0.01 0.03 0.04 0.04 0.03 0.02 0.02 0.03 0.04 0.04 0.05 0.06 0.05 0.05 0.06 0.07 0.07 0.07 0.07 0.08 0.07 0.06 0.05
0.02 0.01 0.02 0.02 0.01 0.02 0.02 0.02 0.02 0.02 0.01 0.01 0.01 0.02 0.02 0.02 0.03 0.03 0.04 0.04 0.03 0.02 0.04 0.06 0.05 0.04 0.03 0.03 0.03 0.03 0.04 0.05 0.05 0.05 0.06 0.08 0.07 0.08 0.09 0.10 0.09 0.08 0.08
0.03 0.01 0.01 0.01 0.02 0.01 0.01 0.01 0.02 0.02 0.01 0.01 0.01 0.01 0.01 0.01 0.02 0.02 0.03 0.02 0.02 0.02 0.03 0.05 0.07 0.06 0.04 0.04 0.04 0.04 0.04 0.05 0.06 0.06 0.07 0.07 0.07 0.07 0.07 0.09 0.10 0.09 0.08
0.02 0.02 0.01 0.00 0.01 0.01 0.01 0.01 0.02 0.01 0.01 0.01 0.01 0.01 0.01 0.01 0.01 0.01 0.01 0.01 0.02 0.02 0.02 0.03 0.06 0.07 0.05 0.05 0.07 0.06 0.05 0.04 0.04 0.05 0.06 0.07 0.07 0.07 0.06 0.06 0.06 0.07 0.06
0.01 0.01 0.02 0.01 0.01 0.01 0.01 0.01 0.02 0.02 0.02 0.01 0.01 0.02 0.02 0.01 0.01 0.01 0.01 0.01 0.02 0.02 0.02 0.02 0.03 0.04 0.05 0.05 0.07 0.07 0.07 0.06 0.05 0.05 0.04 0.05 0.06 0.07 0.06 0.06 0.06 0.05 0.05
0.01 0.01 0.01 0.01 0.02 0.03 0.02 0.01 0.02 0.02 0.02 0.02 0.01 0.01 0.01 0.01 0.01 0.01 0.01 0.01 0.01 0.02 0.02 0.02 0.03 0.04 0.04 0.05 0.06 0.06 0.04 0.04 0.04 0.05 0.04 0.05 0.06 0.06 0.07 0.08 0.07 0.07 0.06
0.00 0.00 0.01 0.02 0.05 0.05 0.04 0.03 0.02 0.02 0.02 0.02 0.03 0.01 0.01 0.01 0.01 0.02 0.02 0.01 0.01 0.02 0.02 0.03 0.03 0.03 0.03 0.03 0.04 0.04 0.04 0.03 0.03 0.03 0.04 0.04 0.04 0.05 0.05 0.07 0.08 0.07 0.06
0.00 0.00 0.01 0.02 0.04 0.04 0.04 0.04 0.03 0.01 0.01 0.01 0.02 0.02 0.01 0.01 0.01 0.02 0.03 0.03 0.03 0.03 0.03 0.03 0.03 0.03 0.02 0.03 0.04 0.04 0.03 0.04 0.04 0.03 0.04 0.03 0.03 0.04 0.05 0.05 0.06 0.06 0.06
0.00 0.00 0.00 0.00 0.01 0.02 0.04 0.03 0.01 0.01 0.01 0.01 0.01 0.02 0.01 0.01 0.01 0.01 0.02 0.02 0.03 0.03 0.03 0.02 0.02 0.02 0.02 0.03 0.04 0.05 0.04 0.04 0.04 0.04 0.05 0.04 0.03 0.03 0.04 0.04 0.05 0.06 0.06
0.00 0.01 0.00 0.00 0.00 0.01 0.02 0.04 0.01 0.01 0.01 0.01 0.01 0.02 0.02 0.02 0.02 0.03 0.04 0.04 0.04 0.03 0.02 0.02 0.02 0.01 0.03 0.04 0.04 0.04 0.04 0.04 0.03 0.03 0.04 0.04 0.03 0.05 0.04 0.05 0.05 0.05 0.05
0.01 0.01 0.02 0.02 0.02 0.02 0.02 0.02 0.02 0.03 0.03 0.04 0.03 0.03 0.04 0.05 0.04 0.04 0.04 0.04 0.04 0.03 0.03 0.03 0.02 0.02 0.03 0.03 0.03 0.01 0.01 0.02 0.02 0.03 0.04 0.04 0.05 0.06 0.06 0.05 0.05 0.05 0.04
0.01 0.02 0.02 0.02 0.02 0.02 0.03 0.04 0.04 0.04 0.06 0.06 0.05 0.05 0.05 0.04 0.04 0.04 0.04 0.04 0.03 0.03 0.03 0.03 0.03 0.03 0.03 0.02 0.02 0.02 0.01 0.02 0.02 0.02 0.03 0.04 0.05 0.06 0.06 0.06 0.04 0.04 0.04
0.00 0.01 0.02 0.03 0.03 0.03 0.03 0.04 0.06 0.07 0.09 0.09 0.08 0.06 0.05 0.04 0.04 0.04 0.03 0.03 0.02 0.02 0.02 0.02 0.03 0.03 0.02 0.02 0.02 0.02 0.01 0.01 0.02 0.03 0.03 0.04 0.04 0.05 0.06 0.05 0.04 0.03 0.03
0.01 0.01 0.01 0.01 0.02 0.03 0.03 0.04 0.07 0.09 0.09 0.09 0.07 0.05 0.05 0.04 0.03 0.02 0.03 0.02 0.02 0.02 0.02 0.02 0.02 0.02 0.02 0.02 0.02 0.02 0.02 0.02 0.02 0.02 0.03 0.03 0.03 0.03 0.03 0.03 0.03 0.03 0.02
0.01 0.01 0.01 0.01 0.01 0.03 0.03 0.05 0.04 0.05 0.04 0.03 0.04 0.04 0.03 0.03 0.02 0.02 0.01 0.01 0.01 0.01 0.01 0.01 0.01 0.01 0.01 0.02 0.02 0.02 0.02 0.02 0.02 0.02 0.03 0.03 0.02 0.02 0.02 0.02 0.02 0.03 0.02
0.01 0.01 0.01 0.01 0.01 0.02 0.03 0.04 0.04 0.04 0.03 0.02 0.02 0.03 0.02 0.03 0.03 0.02 0.01 0.01 0.01 0.01 0.01 0.01 0.00 0.00 0.01 0.01 0.02 0.01 0.01 0.02 0.01 0.01 0.02 0.02 0.02 0.02 0.02 0.01 0.01 0.02 0.02
0.00 0.00 0.01 0.01 0.02 0.02 0.03 0.03 0.03 0.03 0.03 0.02 0.02 0.03 0.03 0.05 0.07 0.06 0.03 0.01 0.01 0.00 0.01 0.01 0.01 0.00 0.01 0.01 0.01 0.01 0.01 0.01 0.01 0.01 0.02 0.02 0.02 0.01 0.01 0.01 0.01 0.02 0.02
0.01 0.00 0.00 0.01 0.01 0.01 0.02 0.02 0.02 0.02 0.02 0.02 0.03 0.04 0.04 0.06 0.07 0.06 0.04 0.02 0.01 0.01 0.01 0.01 0.01 0.01 0.01 0.00 0.01 0.01 0.01 0.01 0.01 0.01 0.01 0.01 0.01 0.01 0.01 0.01 0.02 0.02 0.02
0.00 0.00 0.00 0.00 0.00 0.00 0.01 0.01 0.02 0.02 0.01 0.01 0.02 0.04 0.05 0.06 0.06 0.05 0.05 0.04 0.03 0.02 0.02 0.01 0.01 0.01 0.00 0.01 0.01 0.01 0.01 0.01 0.01 0.01 0.01 0.01 0.01 0.01 0.01 0.01 0.01 0.02 0.02
MSLP
1007.67 1007.80 1007.82 1007.72 1007.50 1007.22 1006.92 1006.68 1006.57 1006.61 1006.83 1007.20 1007.68 1008.24 1008.81 1009.37 1009.90 1010.39 1010.88 1011.39 1011.94 1012.53 1013.17 1013.82 1014.45 1015.02 1015.51 1015.89 1016.16 1016.34 1016.47 1016.57 1016.67 1016.78 1016.91 1017.04 1017.14 1017.19 1017.18 1017.08 1016.91 1016.69 1016.45
1007.92 1008.19 1008.36 1008.40 1008.32 1008.16 1007.96 1007.80 1007.73 1007.80 1008.02 1008.38 1008.84 1009.36 1009.88 1010.39 1010.85 1011.28 1011.71 1012.14 1012.61 1013.13 1013.69 1014.27 1014.82 1015.31 1015.72 1016.02 1016.22 1016.34 1016.42 1016.48 1016.57 1016.69 1016.86 1017.06 1017.24 1017.40 1017.48 1017.48 1017.39 1017.23 1017.03
1008.06 1008.42 1008.70 1008.85 1008.88 1008.81 1008.69 1008.60 1008.59 1008.69 1008.94 1009.31 1009.78 1010.29 1010.80 1011.27 1011.70 1012.08 1012.44 1012.81 1013.20 1013.63 1014.10 1014.59 1015.05 1015.46 1015.79 1016.02 1016.16 1016.23 1016.27 1016.31 1016.39 1016.53 1016.73 1016.97 1017.23 1017.46 1017.62 1017.70 1017.69 1017.58 1017.41
1008.14 1008.57 1008.92 1009.15 1009.26 1009.26 1009.21 1009.17 1009.21 1009.35 1009.63 1010.02 1010.50 1011.01 1011.53 1011.99 1012.40 1012.75 1013.07 1013.37 1013.68 1014.03 1014.40 1014.79 1015.17 1015.50 1015.76 1015.93 1016.03 1016.07 1016.08 1016.10 1016.18 1016.32 1016.53 1016.80 1017.08 1017.36 1017.57 1017.71 1017.75 1017.70 1017.58
1008.18 1008.66 1009.08 1009.38 1009.55 1009.62 1009.63 1009.63 1009.70 1009.86 1010.15 1010.55 1011.04 1011.56 1012.07 1012.54 1012.93 1013.26 1013.54 1013.79 1014.05 1014.32 1014.61 1014.91 1015.21 1015.47 1015.68 1015.81 1015.88 1015.89 1015.89 1015.91 1015.97 1016.09 1016.29 1016.54 1016.82 1017.10 1017.34 1017.51 1017.60 1017.61 1017.55
1008.19 1008.73 1009.21 1009.59 1009.83 1009.96 1010.02 1010.06 1010.13 1010.30 1010.58 1010.97 1011.44 1011.94 1012.45 1012.90 1013.29 1013.61 1013.86 1014.08 1014.28 1014.49 1014.72 1014.96 1015.20 1015.41 1015.57 1015.68 1015.73 1015.74 1015.73 1015.73 1015.77 1015.87 1016.02 1016.23 1016.48 1016.73 1016.96 1017.15 1017.28 1017.35 1017.37
1008.13 1008.75 1009.32 1009.79 1010.12 1010.32 1010.43 1010.49 1010.58 1010.73 1010.97 1011.32 1011.74 1012.21 1012.68 1013.11 1013.48 1013.78 1014.02 1014.22 1014.39 1014.57 1014.75 1014.94 1015.13 1015.30 1015.44 1015.53 1015.58 1015.59 1015.59 1015.58 1015.59 1015.65 1015.75 1015.90 1016.09 1016.29 1016.49 1016.68 1016.85 1016.99 1017.11
1007.98 1008.70 1009.37 1009.95 1010.38 1010.67 1010.84 1010.94 1011.03 1011.15 1011.35 1011.63 1011.99 1012.39 1012.81 1013.20 1013.55 1013.83 1014.06 1014.24 1014.40 1014.54 1014.69 1014.85 1015.01 1015.15 1015.28 1015.38 1015.43 1015.45 1015.45 1015.44 1015.43 1015.44 1015.49 1015.57 1015.68 1015.83 1016.00 1016.18 1016.39 1016.61 1016.84
1007.70 1008.52 1009.32 1010.01 1010.57 1010.96 1011.21 1011.37 1011.47 1011.58 1011.73 1011.94 1012.22 1012.54 1012.89 1013.23 1013.53 1013.80 1014.01 1014.18 1014.32 1014.45 1014.58 1014.71 1014.84 1014.97 1015.09 1015.19 1015.26 1015.30 1015.31 1015.30 1015.28 1015.26 1015.25 1015.26 1015.31 1015.40 1015.53 1015.72 1015.97 1016.27 1016.62
1007.31 1008.22 1009.13 1009.94 1010.62 1011.13 1011.48 1011.71 1011.85 1011.96 1012.08 1012.24 1012.44 1012.69 1012.97 1013.25 1013.51 1013.74 1013.93 1014.09 1014.22 1014.33 1014.43 1014.54 1014.65 1014.77 1014.88 1014.99 1015.07 1015.13 1015.16 1015.16 1015.14 1015.10 1015.05 1015.02 1015.01 1015.05 1015.16 1015.35 1015.64 1016.01 1016.47
1006.83 1007.81 1008.79 1009.70 1010.48 1011.11 1011.57 1011.89 1012.10 1012.25 1012.37 1012.51 1012.67 1012.86 1013.07 1013.30 1013.52 1013.72 1013.89 1014.03 1014.15 1014.24 1014.32 1014.40 1014.49 1014.58 1014.69 1014.79 1014.89 1014.97 1015.03 1015.05 1015.03 1014.99 1014.92 1014.85 1014.81 1014.82 1014.91 1015.11 1015.43 1015.87 1016.42
1006.36 1007.33 1008.33 1009.29 1010.15 1010.87 1011.44 1011.87 1012.17 1012.40 1012.57 1012.72 1012.87 1013.04 1013.23 1013.42 1013.61 1013.78 1013.93 1014.05 1014.15 1014.22 1014.28 1014.33 1014.39 1014.46 1014.55 1014.65 1014.76 1014.86 1014.93 1014.98 1014.98 1014.94 1014.87 1014.79 1014.73 1014.72 1014.80 1015.01 1015.35 1015.84 1016.45
1005.98 1006.87 1007.82 1008.76 1009.64 1010.42 1011.08 1011.62 1012.04 1012.37 1012.63 1012.84 1013.03 1013.22 1013.40 1013.58 1013.76 1013.92 1014.06 1014.17 1014.25 1014.31 1014.34 1014.37 1014.40 1014.45 1014.51 1014.60 1014.71 1014.82 1014.92 1014.98 1015.01 1014.99 1014.93 1014.85 1014.78 1014.76 1014.83 1015.04 1015.39 1015.91 1016.55
1005.77 1006.50 1007.31 1008.16 1009.00 1009.80 1010.53 1011.17 1011.71 1012.16 1012.53 1012.84 1013.10 1013.34 1013.55 1013.76 1013.95 1014.12 1014.26 1014.38 1014.46 1014.51 1014.53 1014.54 1014.55 1014.57 1014.61 1014.68 1014.78 1014.89 1015.00 1015.08 1015.12 1015.12 1015.08 1015.01 1014.94 1014.92 1014.99 1015.19 1015.54 1016.05 1016.70
1005.76 1006.27 1006.88 1007.57 1008.32 1009.09 1009.84 1010.55 1011.20 1011.77 1012.27 1012.69 1013.05 1013.36 1013.64 1013.89 1014.11 1014.31 1014.49 1014.63 1014.73 1014.79 1014.82 1014.82 1014.82 1014.82 1014.84 1014.89 1014.97 1015.07 1015.18 1015.27 1015.33 1015.34 1015.31 1015.26 1015.20 1015.19 1015.25 1015.44 1015.77 1016.26 1016.87
1005.98 1006.22 1006.59 1007.08 1007.69 1008.38 1009.12 1009.87 1010.60 1011.27 1011.87 1012.41 1012.87 1013.27 1013.62 1013.93 1014.21 1014.46 1014.68 1014.86 1015.00 1015.10 1015.15 1015.17 1015.16 1015.16 1015.17 1015.20 1015.26 1015.34 1015.43 1015.52 1015.59 1015.62 1015.61 1015.58 1015.54 1015.53 1015.59 1015.76 1016.06 1016.50 1017.06
1006.39 1006.37 1006.49 1006.77 1007.22 1007.80 1008.49 1009.23 1009.99 1010.73 1011.41 1012.03 1012.57 1013.04 1013.46 1013.83 1014.17 1014.48 1014.76 1015.00 1015.20 1015.35 1015.45 1015.51 1015.53 1015.53 1015.53 1015.54 1015.58 1015.65 1015.73 1015.81 1015.88 1015.92 1015.94 1015.92 1015.90 1015.91 1015.97 1016.12 1016.39 1016.77 1017.26
1006.96 1006.71 1006.61 1006.70 1006.98 1007.44 1008.05 1008.75 1009.50 1010.25 1010.96 1011.61 1012.19 1012.70 1013.17 1013.58 1013.97 1014.34 1014.68 1015.00 1015.27 1015.49 1015.65 1015.76 1015.81 1015.84 1015.85 1015.86 1015.88 1015.93 1016.00 1016.08 1016.15 1016.21 1016.25 1016.26 1016.27 1016.29 1016.36 1016.50 1016.73 1017.05 1017.46
1007.64 1007.24 1006.98 1006.92 1007.06 1007.40 1007.90 1008.53 1009.22 1009.92 1010.60 1011.23 1011.80 1012.31 1012.77 1013.21 1013.62 1014.03 1014.42 1014.80 1015.14 1015.44 1015.67 1015.84 1015.95 1016.01 1016.04 1016.07 1016.09 1016.13 1016.20 1016.28 1016.36 1016.44 1016.51 1016.56 1016.60 1016.65 1016.73 1016.86 1017.05 1017.31 1017.64
1008.41 1007.93 1007.60 1007.44 1007.48 1007.71 1008.10 1008.62 1009.21 1009.82 1010.41 1010.96 1011.46 1011.91 1012.33 1012.74 1013.14 1013.56 1013.99 1014.41 1014.81 1015.17 1015.48 1015.71 1015.88 1015.99 1016.06 1016.11 1016.15 1016.21 1016.28 1016.38 1016.48 1016.59 1016.69 1016.78 1016.87 1016.94 1017.04 1017.16 1017.32 1017.54 1017.80
1009.25 1008.78 1008.44 1008.24 1008.21 1008.36 1008.64 1009.03 1009.49 1009.96 1010.41 1010.83 1011.21 1011.55 1011.88 1012.22 1012.58 1012.97 1013.39 1013.83 1014.27 1014.68 1015.05 1015.35 1015.58 1015.75 1015.87 1015.96 1016.04 1016.13 1016.23 1016.36 1016.49 1016.64 1016.78 1016.92 1017.03 1017.15 1017.26 1017.38 1017.52 1017.69 1017.89
1010.15 1009.77 1009.46 1009.27 1009.21 1009.28 1009.46 1009.72 1010.02 1010.33 1010.61 1010.86 1011.08 1011.27 1011.48 1011.71 1011.98 1012.31 1012.69 1013.12 1013.56 1014.00 1014.41 1014.76 1015.06 1015.29 1015.48 1015.63 1015.77 1015.90 1016.05 1016.22 1016.40 1016.58 1016.77 1016.94 1017.09 1017.23 1017.36 1017.48 1017.60 1017.74 1017.90
1011.12 1010.83 1010.60 1010.43 1010.36 1010.37 1010.46 1010.58 1010.72 1010.85 1010.95 1011.02 1011.05 1011.09 1011.14 1011.23 1011.39 1011.63 1011.94 1012.32 1012.74 1013.18 1013.61 1014.00 1014.35 1014.65 1014.91 1015.14 1015.34 1015.55 1015.75 1015.97 1016.20 1016.43 1016.65 1016.85 1017.03 1017.18 1017.31 1017.43 1017.55 1017.67 1017.80
1012.11 1011.93 1011.76 1011.63 1011.55 1011.51 1011.50 1011.50 1011.49 1011.45 1011.37 1011.25 1011.12 1010.98 1010.87 1010.82 1010.85 1010.97 1011.19 1011.50 1011.87 1012.28 1012.71 1013.13 1013.52 1013.89 1014.22 1014.53 1014.82 1015.10 1015.38 1015.65 1015.93 1016.19 1016.43 1016.65 1016.84 1016.99 1017.12 1017.23 1017.34 1017.45 1017.57
1013.07 1012.97 1012.85 1012.74 1012.65 1012.55 1012.46 1012.35 1012.20 1012.01 1011.78 1011.51 1011.22 1010.93 1010.68 1010.49 1010.39 1010.39 1010.49 1010.71 1011.00 1011.37 1011.78 1012.21 1012.64 1013.07 1013.47 1013.86 1014.24 1014.60 1014.94 1015.27 1015.59 1015.88 1016.13 1016.35 1016.52 1016.67 1016.78 1016.88 1016.98 1017.09 1017.21
1013.93 1013.86 1013.77 1013.66 1013.53 1013.39 1013.22 1013.02 1012.77 1012.47 1012.12 1011.74 1011.33 1010.92 1010.55 1010.24 1010.01 1009.89 1009.89 1010.00 1010.21 1010.52 1010.89 1011.32 1011.77 1012.24 1012.72 1013.18 1013.63 1014.07 1014.48 1014.86 1015.20 1015.50 1015.75 1015.95 1016.10 1016.22 1016.31 1016.40 1016.49 1016.60 1016.74
Thickness
5819 5818 5816 5813 5810 5806 5802 5799 5796 5794 5792 5790 5788 5784 5782 5782 5782 5780 5777 5775 5773 5772 5770 5771 5767 5766 5765 5763 5762 5760 5760 5760 5760 5760 5758 5760 5762 5761 5760 5760 5759 5759 5759
5817 5814 5814 5812 5809 5805 5802 5798 5795 5794 5792 5790 5786 5784 5782 5781 5780 5778 5775 5773 5771 5769 5770 5766 5766 5763 5761 5759 5758 5757 5757 5757 5758 5756 5754 5752 5753 5754 5758 5756 5755 5755 5755
5818 5815 5813 5811 5809 5805 5802 5800 5796 5793 5791 5789 5788 5784 5780 5779 5777 5774 5772 5771 5769 5767 5765 5763 5762 5760 5760 5757 5755 5754 5752 5752 5754 5755 5752 5748 5746 5748 5751 5750 5751 5751 5751
5822 5819 5815 5811 5809 5807 5805 5800 5796 5792 5790 5788 5786 5781 5777 5773 5772 5771 5770 5769 5766 5764 5762 5760 5758 5757 5757 5754 5754 5753 5752 5750 5750 5751 5752 5751 5749 5744 5743 5745 5747 5747 5746
5823 5819 5817 5813 5811 5809 5805 5800 5795 5791 5789 5787 5783 5779 5776 5774 5773 5770 5766 5765 5764 5762 5759 5757 5755 5753 5753 5751 5749 5749 5749 5749 5748 5748 5748 5747 5746 5746 5741 5737 5739 5742 5743
5823 5819 5817 5814 5810 5808 5804 5800 5793 5789 5787 5784 5781 5777 5773 5770 5768 5765 5763 5763 5762 5760 5756 5755 5752 5751 5750 5747 5746 5746 5745 5744 5743 5744 5745 5744 5742 5740 5739 5735 5733 5734 5736
5821 5817 5813 5810 5807 5804 5801 5797 5791 5786 5785 5782 5779 5775 5771 5768 5765 5763 5761 5760 5759 5757 5753 5752 5749 5747 5746 5745 5744 5742 5742 5741 5740 5740 5741 5743 5742 5741 5739 5735 5732 5731 5733
5820 5816 5813 5809 5805 5802 5798 5794 5789 5785 5782 5779 5776 5773 5770 5769 5766 5762 5761 5758 5757 5755 5751 5748 5745 5744 5743 5743 5741 5741 5739 5738 5737 5737 5736 5738 5739 5739 5737 5733 5730 5727 5728
5817 5815 5812 5808 5804 5800 5796 5792 5787 5783 5780 5777 5773 5770 5767 5765 5762 5759 5757 5756 5752 5751 5748 5745 5743 5741 5739 5738 5737 5736 5735 5734 5734 5735 5734 5734 5735 5734 5733 5732 5730 5725 5721
5814 5812 5809 5806 5803 5801 5796 5792 5787 5781 5778 5775 5772 5769 5765 5762 5758 5756 5751 5749 5747 5746 5744 5742 5740 5738 5736 5735 5733 5733 5732 5730 5729 5729 5728 5728 5730 5729 5728 5727 5726 5724 5720
5811 5808 5806 5803 5801 5798 5795 5789 5784 5779 5775 5772 5769 5765 5762 5759 5756 5752 5749 5746 5743 5741 5739 5738 5736 5734 5733 5731 5729 5729 5728 5726 5725 5724 5723 5722 5722 5723 5723 5722 5721 5719 5718
5807 5805 5802 5799 5796 5792 5790 5786 5782 5778 5774 5770 5765 5761 5758 5755 5752 5749 5746 5743 5740 5738 5736 5734 5732 5730 5729 5727 5726 5724 5723 5721 5720 5719 5717 5716 5717 5715 5715 5715 5714 5713 5711
5802 5800 5797 5793 5790 5787 5784 5781 5778 5775 5772 5767 5762 5757 5754 5751 5747 5745 5742 5740 5737 5734 5732 5729 5727 5725 5724 5722 5721 5720 5718 5716 5715 5714 5712 5711 5710 5708 5708 5707 5707 5707 5707
5796 5795 5792 5788 5785 5782 5778 5775 5773 5771 5768 5763 5758 5752 5749 5745 5743 5740 5737 5735 5732 5730 5727 5725 5723 5721 5720 5718 5716 5715 5713 5711 5710 5708 5707 5706 5704 5703 5702 5702 5700 5700 5698
5791 5789 5786 5783 5780 5776 5772 5769 5767 5766 5763 5758 5754 5749 5745 5742 5738 5735 5732 5730 5728 5726 5722 5720 5718 5717 5716 5714 5711 5709 5708 5706 5704 5703 5701 5700 5698 5696 5696 5697 5695 5694 5692
5786 5784 5780 5777 5774 5771 5768 5764 5762 5759 5756 5752 5748 5744 5741 5737 5733 5730 5728 5725 5722 5719 5717 5715 5713 5711 5711 5705 5703 5702 5702 5700 5698 5697 5695 5695 5693 5691 5688 5687 5685 5685 5685
5781 5778 5776 5773 5770 5767 5764 5760 5757 5754 5750 5746 5742 5739 5735 5731 5728 5726 5723 5719 5715 5713 5711 5709 5707 5704 5701 5697 5695 5694 5694 5694 5693 5691 5689 5691 5690 5686 5685 5681 5679 5677 5675
5775 5774 5772 5770 5767 5763 5760 5756 5753 5748 5744 5740 5736 5733 5730 5726 5723 5720 5717 5713 5710 5708 5705 5702 5699 5697 5694 5690 5688 5687 5688 5688 5686 5684 5683 5681 5680 5679 5677 5676 5675 5674 5672
5770 5769 5768 5765 5761 5757 5754 5749 5746 5742 5737 5733 5729 5727 5724 5721 5717 5713 5710 5707 5704 5701 5699 5696 5692 5689 5686 5683 5680 5679 5682 5681 5679 5678 5676 5674 5672 5668 5667 5668 5667 5666 5665
5765 5763 5761 5757 5752 5749 5747 5741 5738 5734 5730 5727 5723 5720 5717 5714 5710 5707 5703 5700 5697 5694 5692 5689 5685 5682 5679 5675 5673 5671 5675 5674 5672 5671 5669 5665 5663 5659 5658 5659 5659 5658 5657
5756 5754 5751 5747 5743 5741 5737 5732 5729 5726 5724 5721 5717 5713 5710 5706 5703 5699 5695 5692 5689 5686 5683 5681 5678 5674 5671 5668 5665 5663 5665 5665 5665 5664 5662 5659 5652 5650 5649 5648 5650 5648 5647
5746 5744 5741 5736 5734 5732 5728 5724 5720 5719 5717 5713 5710 5706 5702 5700 5696 5691 5687 5684 5681 5678 5676 5673 5670 5668 5665 5661 5657 5655 5653 5653 5654 5654 5653 5649 5643 5641 5639 5639 5638 5637 5636
5737 5735 5732 5727 5725 5723 5719 5715 5712 5710 5707 5704 5700 5697 5694 5691 5688 5684 5681 5678 5675 5673 5671 5668 5665 5662 5659 5655 5649 5647 5645 5643 5644 5644 5639 5636 5634 5633 5633 5631 5630 5629 5632
5728 5726 5722 5718 5715 5713 5710 5706 5704 5702 5699 5695 5691 5688 5685 5682 5679 5676 5675 5672 5668 5666 5663 5660 5657 5655 5651 5648 5644 5642 5640 5636 5636 5636 5632 5628 5626 5626 5625 5625 5625 5625 5625
5721 5718 5714 5710 5707 5704 5701 5699 5696 5693 5689 5686 5683 5680 5678 5675 5671 5668 5665 5663 5660 5656 5653 5652 5650 5646 5643 5637 5631 5631 5631 5629 5628 5625 5626 5624 5622 5621 5620 5620 5619 5618 5617
5711 5708 5705 5702 5700 5697 5694 5691 5688 5685 5681 5678 5676 5675 5673 5669 5666 5663 5659 5654 5651 5646 5642 5638 5636 5636 5630 5626 5622 5619 5617 5615 5614 5615 5618 5616 5614 5613 5612 5611 5610 5609 5608